Location: Buffign�court
(47.8126°N, 6.0176°E)
Time: 19:49:19
(UTC+00:00)

SAR-Lupe-2 - Pass Details

Date: 16 June 2021
Orbit: 482 x 484 km, 98.1° (Epoch: 20 July)

Event Time Altitude Azimuth Distance (km) Brightness Sun altitude
Rises 23:08:37 0° 17° (NNE) 2,562 8.4 -18.5°
Reaches altitude 10° 23:10:43 10° 21° (NNE) 1,676 7.2 -18.6°
Maximum altitude 23:14:17 59° 102° (ESE) 566 3.7 -18.6°
Enters shadow 23:14:50 51° 143° (SE) 616 3.7 -18.6°
